When you browse on this site, cookies collect data to enhance your experience and personalize the content and advertising you see.
Visit our Privacy Policy to learn more. By continuing to use the site, you agree to this use of cookies and data.
  • Em Portugal
  • Lista de países
  • Para 7 dias
  • Temperatura da água
  • Mapas de satélite
  • Mapa do tempo
  • Widgets de tempo
  • user-avatar
    Iniciar Sessão

    Previsão horária em Algiers

    Hoje, 24 Maio, Sexta-feira

    Tempo Temperatura Precipitação Vento Pressão Humidade
    00:00 +20°C° 0 mm 2 m/s 748 mmHg 48%
    01:00 +20°C° 0 mm 2 m/s 747 mmHg 47%
    02:00 +20°C° 0 mm 2 m/s 747 mmHg 46%
    03:00 +20°C° 0 mm 2 m/s 747 mmHg 45%
    04:00 +20°C° 0 mm 2 m/s 746 mmHg 45%
    05:00 +21°C° 0 mm 2 m/s 746 mmHg 45%
    06:00 +23°C° 0 mm 2 m/s 746 mmHg 41%
    07:00 +24°C° 0 mm 2 m/s 746 mmHg 38%
    08:00 +26°C° 0 mm 2 m/s 746 mmHg 35%
    09:00 +27°C° 0 mm 3 m/s 746 mmHg 33%
    10:00 +28°C° 0 mm 3 m/s 746 mmHg 34%
    11:00 +28°C° 0 mm 4 m/s 745 mmHg 35%
    12:00 +29°C° 0 mm 5 m/s 745 mmHg 36%
    13:00 +28°C° 0 mm 5 m/s 745 mmHg 40%
    14:00 +27°C° 0 mm 5 m/s 744 mmHg 44%
    15:00 +26°C° 0 mm 6 m/s 744 mmHg 48%
    16:00 +24°C° 0 mm 6 m/s 744 mmHg 54%
    17:00 +23°C° 0 mm 6 m/s 744 mmHg 61%
    18:00 +21°C° 0 mm 6 m/s 744 mmHg 67%
    19:00 +21°C° 0 mm 6 m/s 744 mmHg 69%
    20:00 +20°C° 0 mm 6 m/s 745 mmHg 72%
    21:00 +20°C° 0 mm 6 m/s 745 mmHg 74%
    22:00 +20°C° 0 mm 5 m/s 745 mmHg 76%
    23:00 +19°C° 0 mm 5 m/s 745 mmHg 77%

    Amanhã, 25 Maio, Sábado

    Tempo Temperatura Precipitação Vento Pressão Humidade
    00:00 +19°C° 0 mm 4 m/s 745 mmHg 78%
    01:00 +19°C° 0 mm 4 m/s 745 mmHg 79%
    02:00 +18°C° 0 mm 3 m/s 745 mmHg 80%
    03:00 +18°C° 0 mm 3 m/s 744 mmHg 81%
    04:00 +18°C° 0 mm 3 m/s 745 mmHg 79%
    05:00 +19°C° 0 mm 2 m/s 745 mmHg 77%
    06:00 +19°C° 0 mm 2 m/s 745 mmHg 74%
    07:00 +19°C° 0.1 mm 2 m/s 745 mmHg 70%
    08:00 +20°C° 0.1 mm 3 m/s 746 mmHg 66%
    09:00 +21°C° 0.1 mm 4 m/s 746 mmHg 62%
    10:00 +21°C° 0.2 mm 4 m/s 746 mmHg 59%
    11:00 +22°C° 0.2 mm 4 m/s 746 mmHg 56%
    12:00 +23°C° 0.2 mm 5 m/s 746 mmHg 53%
    13:00 +22°C° 0.5 mm 5 m/s 746 mmHg 55%
    14:00 +22°C° 0.5 mm 5 m/s 746 mmHg 56%
    15:00 +22°C° 0.5 mm 5 m/s 746 mmHg 58%
    16:00 +21°C° 0.8 mm 5 m/s 746 mmHg 62%
    17:00 +20°C° 0.8 mm 4 m/s 746 mmHg 67%
    18:00 +19°C° 0.8 mm 4 m/s 747 mmHg 71%
    19:00 +19°C° 0.6 mm 3 m/s 747 mmHg 73%
    20:00 +18°C° 0.6 mm 3 m/s 747 mmHg 75%
    21:00 +18°C° 0.6 mm 2 m/s 748 mmHg 78%
    22:00 +18°C° 0.7 mm 2 m/s 748 mmHg 78%
    23:00 +18°C° 0.7 mm 2 m/s 748 mmHg 78%

    Depois de amanhã, 26 Maio, Domingo

    Tempo Temperatura Precipitação Vento Pressão Humidade
    00:00 +18°C° 0.7 mm 2 m/s 747 mmHg 79%
    01:00 +18°C° 1 mm 3 m/s 747 mmHg 79%
    02:00 +18°C° 1 mm 3 m/s 747 mmHg 79%
    03:00 +17°C° 1 mm 3 m/s 747 mmHg 79%
    04:00 +18°C° 0.7 mm 4 m/s 747 mmHg 78%
    05:00 +18°C° 0.7 mm 4 m/s 747 mmHg 77%
    06:00 +17°C° 0.7 mm 5 m/s 747 mmHg 76%
    07:00 +17°C° 1.3 mm 5 m/s 747 mmHg 77%
    08:00 +17°C° 1.3 mm 5 m/s 748 mmHg 78%
    09:00 +17°C° 1.3 mm 5 m/s 748 mmHg 79%
    10:00 +19°C° 0.9 mm 5 m/s 748 mmHg 75%
    11:00 +19°C° 0.9 mm 5 m/s 749 mmHg 71%
    12:00 +20°C° 0.9 mm 4 m/s 749 mmHg 68%
    13:00 +20°C° 0.4 mm 4 m/s 749 mmHg 65%
    14:00 +21°C° 0.4 mm 4 m/s 748 mmHg 62%
    15:00 +21°C° 0.4 mm 3 m/s 748 mmHg 59%
    16:00 +21°C° 0.1 mm 3 m/s 748 mmHg 60%
    17:00 +20°C° 0.1 mm 2 m/s 749 mmHg 62%
    18:00 +20°C° 0.1 mm 2 m/s 749 mmHg 63%
    19:00 +19°C° 0 mm 2 m/s 749 mmHg 66%
    20:00 +20°C° 0 mm 1 m/s 749 mmHg 68%
    21:00 +19°C° 0 mm 1 m/s 749 mmHg 71%
    22:00 +18°C° 0 mm 2 m/s 749 mmHg 71%
    23:00 +18°C° 0 mm 2 m/s 749 mmHg 72%

    27 Maio, Segunda-feira

    Tempo Temperatura Precipitação Vento Pressão Humidade
    00:00 +18°C° 0 mm 3 m/s 748 mmHg 73%
    01:00 +17°C° 0 mm 2 m/s 748 mmHg 72%
    02:00 +17°C° 0 mm 2 m/s 748 mmHg 71%
    03:00 +17°C° 0 mm 2 m/s 748 mmHg 71%
    04:00 +17°C° 0 mm 2 m/s 748 mmHg 69%
    05:00 +18°C° 0 mm 2 m/s 748 mmHg 67%
    06:00 +18°C° 0 mm 2 m/s 748 mmHg 65%
    07:00 +20°C° 0 mm 2 m/s 748 mmHg 58%
    08:00 +21°C° 0 mm 2 m/s 748 mmHg 52%
    09:00 +24°C° 0 mm 2 m/s 748 mmHg 45%
    10:00 +25°C° 0 mm 2 m/s 748 mmHg 43%
    11:00 +26°C° 0 mm 2 m/s 748 mmHg 40%
    12:00 +26°C° 0 mm 2 m/s 747 mmHg 38%
    13:00 +26°C° 0 mm 3 m/s 747 mmHg 38%
    14:00 +26°C° 0 mm 3 m/s 747 mmHg 38%
    15:00 +26°C° 0 mm 3 m/s 747 mmHg 39%
    16:00 +25°C° 0 mm 3 m/s 747 mmHg 43%
    17:00 +24°C° 0 mm 3 m/s 747 mmHg 47%
    18:00 +24°C° 0 mm 3 m/s 747 mmHg 51%
    19:00 +22°C° 0 mm 3 m/s 747 mmHg 53%
    20:00 +21°C° 0 mm 3 m/s 747 mmHg 55%
    21:00 +20°C° 0 mm 2 m/s 747 mmHg 57%
    22:00 +20°C° 0 mm 2 m/s 747 mmHg 57%
    23:00 +20°C° 0 mm 2 m/s 747 mmHg 56%

    28 Maio, Terça-feira

    Tempo Temperatura Precipitação Vento Pressão Humidade
    00:00 +20°C° 0 mm 2 m/s 747 mmHg 55%
    01:00 +20°C° 0 mm 2 m/s 746 mmHg 53%
    02:00 +20°C° 0 mm 2 m/s 746 mmHg 52%
    03:00 +20°C° 0 mm 2 m/s 746 mmHg 51%
    04:00 +20°C° 0 mm 2 m/s 746 mmHg 50%
    05:00 +21°C° 0 mm 2 m/s 746 mmHg 49%
    06:00 +21°C° 0 mm 2 m/s 746 mmHg 48%
    07:00 +24°C° 0 mm 2 m/s 746 mmHg 43%
    08:00 +26°C° 0 mm 1 m/s 746 mmHg 38%
    09:00 +28°C° 0 mm 1 m/s 746 mmHg 33%
    10:00 +29°C° 0 mm 2 m/s 746 mmHg 32%
    11:00 +30°C° 0 mm 2 m/s 746 mmHg 30%
    12:00 +31°C° 0 mm 3 m/s 745 mmHg 28%
    13:00 +30°C° 0 mm 4 m/s 745 mmHg 30%
    14:00 +30°C° 0 mm 4 m/s 744 mmHg 32%
    15:00 +30°C° 0 mm 5 m/s 744 mmHg 34%
    16:00 +29°C° 0 mm 4 m/s 744 mmHg 37%
    17:00 +28°C° 0 mm 3 m/s 744 mmHg 40%
    18:00 +27°C° 0 mm 3 m/s 744 mmHg 43%
    19:00 +26°C° 0 mm 3 m/s 744 mmHg 44%
    20:00 +25°C° 0 mm 2 m/s 745 mmHg 46%
    21:00 +25°C° 0 mm 2 m/s 745 mmHg 47%
    22:00 +24°C° 0 mm 2 m/s 745 mmHg 48%
    23:00 +24°C° 0 mm 2 m/s 745 mmHg 49%

    29 Maio, Quarta-feira

    Tempo Temperatura Precipitação Vento Pressão Humidade
    00:00 +24°C° 0 mm 2 m/s 745 mmHg 49%
    01:00 +22°C° 0 mm 3 m/s 745 mmHg 58%
    02:00 +21°C° 0 mm 4 m/s 745 mmHg 66%
    03:00 +20°C° 0 mm 4 m/s 745 mmHg 75%
    04:00 +20°C° 0 mm 5 m/s 746 mmHg 77%
    05:00 +20°C° 0 mm 5 m/s 747 mmHg 79%
    06:00 +20°C° 0 mm 6 m/s 747 mmHg 81%
    07:00 +19°C° 0.1 mm 5 m/s 748 mmHg 81%
    08:00 +19°C° 0.1 mm 5 m/s 748 mmHg 80%
    09:00 +19°C° 0.1 mm 5 m/s 749 mmHg 79%
    10:00 +20°C° 0.1 mm 4 m/s 749 mmHg 75%
    11:00 +21°C° 0.1 mm 4 m/s 749 mmHg 71%
    12:00 +22°C° 0.1 mm 4 m/s 749 mmHg 66%
    13:00 +22°C° 0 mm 4 m/s 749 mmHg 66%
    14:00 +22°C° 0 mm 5 m/s 749 mmHg 66%
    15:00 +22°C° 0 mm 6 m/s 749 mmHg 65%
    16:00 +22°C° 0 mm 6 m/s 749 mmHg 69%
    17:00 +21°C° 0 mm 6 m/s 750 mmHg 73%
    18:00 +20°C° 0 mm 6 m/s 750 mmHg 76%
    19:00 +20°C° 0 mm 6 m/s 750 mmHg 78%
    20:00 +19°C° 0 mm 6 m/s 751 mmHg 79%
    21:00 +19°C° 0 mm 6 m/s 752 mmHg 81%
    22:00 +17°C° 0 mm 5 m/s 752 mmHg 82%
    23:00 +18°C° 0 mm 4 m/s 752 mmHg 82%
    Mostrar mais